SV1DAY-13 Weather Reports


time (UTC)temp
C
wind
direction
speed
KPH
gust
KPH
rain 1hr
cm
rain 24hr
cm
rain mn
cm
humidity
%
barometer
mb
20260507170056 18 92 4.8 9.7 0.00 0.03 0.03 58 1017.3
20260507164551 18 92 6.4 9.7 0.00 0.03 0.03 56 1017.2
20260507163046 18 92 4.8 9.7 0.00 0.03 0.03 51 1017.3
20260507161549 18 92 3.2 6.4 0.00 0.03 0.03 50 1017.3
20260507160041 18 92 3.2 9.7 0.00 0.03 0.03 51 1017.2
20260507154554 18 109 8.0 12.9 0.00 0.03 0.03 50 1017.2
20260507153058 19 96 4.8 6.4 0.00 0.03 0.03 46 1017.4
20260507151546 20 96 3.2 4.8 0.00 0.03 0.03 40 1017.3
20260507150043 20 102 4.8 6.4 0.00 0.03 0.03 44 1017.1
20260507144543 20 93 3.2 4.8 0.00 0.03 0.03 42 1017.4
20260507143054 20 93 3.2 6.4 0.00 0.03 0.03 46 1017.2
20260507141559 19 111 3.2 6.4 0.00 0.03 0.03 57 1017.3
20260507140051 19 127 1.6 4.8 0.00 0.03 0.03 59 1017.8
20260507134553 20 129 4.8 11.3 0.00 0.03 0.03 56 1017.8
20260507133116 20 122 6.4 12.9 0.00 0.03 0.03 53 1017.1
20260507131546 20 111 8.0 11.3 0.00 0.03 0.03 44 1017.6
20260507130038 20 112 8.0 12.9 0.00 0.03 0.03 52 1017.6
20260507124653 20 109 8.0 12.9 0.00 0.03 0.03 53 1017.5
20260507123050 20 104 9.7 16.1 0.00 0.03 0.03 47 1017.9
20260507121544 20 111 11.3 17.7 0.00 0.03 0.03 54 1018.0
20260507120038 20 117 11.3 17.7 0.00 0.03 0.03 54 1017.8
20260507114610 18 114 11.3 16.1 0.00 0.03 0.03 58 1017.8
20260507113054 17 89 11.3 16.1 0.00 0.03 0.03 61 1017.8
20260507111608 17 98 9.7 16.1 0.00 0.03 0.03 62 1017.9
20260507110043 17 109 9.7 16.1 0.00 0.03 0.03 62 1017.8
20260507104543 17 111 12.9 16.1 0.00 0.03 0.03 65 1017.8
20260507103044 17 109 11.3 16.1 0.00 0.03 0.03 64 1018.0
20260507101554 17 128 8.0 12.9 0.00 0.03 0.03 66 1018.2
20260507100053 17 138 4.8 12.9 0.00 0.03 0.03 72 1018.3
20260507094557 17 134 9.7 14.5 0.00 0.03 0.03 72 1018.5
20260507093044 17 124 9.7 16.1 0.00 0.03 0.03 71 1018.6
20260507091542 17 142 9.7 19.3 0.00 0.03 0.03 70 1018.7
20260507090036 17 130 11.3 19.3 0.00 0.03 0.03 69 1018.5
20260507084557 17 101 12.9 19.3 0.00 0.03 0.03 68 1018.3
20260507083050 17 114 12.9 20.9 0.00 0.03 0.03 65 1018.2
20260507081547 17 121 12.9 19.3 0.00 0.03 0.03 64 1017.9
20260507080044 17 105 11.3 19.3 0.00 0.03 0.03 63 1017.9
20260507074549 16 115 11.3 17.7 0.00 0.03 0.03 63 1018.1
20260507073048 16 137 9.7 20.9 0.00 0.03 0.03 63 1017.7
20260507071556 17 113 12.9 24.1 0.00 0.03 0.03 62 1017.5
20260507070057 18 123 12.9 19.3 0.00 0.03 0.03 58 1017.3
20260507064557 18 87 9.7 19.3 0.00 0.03 0.03 56 1017.3
20260507063048 17 96 9.7 16.1 0.00 0.03 0.03 61 1017.3
20260507061541 17 97 6.4 9.7 0.00 0.03 0.03 60 1017.2
20260507060040 16 98 8.0 14.5 0.00 0.03 0.03 62 1017.3
20260507054558 17 104 6.4 9.7 0.00 0.03 0.03 59 1017.1
20260507053113 17 89 8.0 11.3 0.00 0.03 0.03 58 1017.1
20260507051550 16 278 1.6 3.2 0.00 0.03 0.03 61 1017.1
20260507050046 18 360 0.0 1.6 0.00 0.03 0.03 51 1017.0
20260507044558 16 360 0.0 6.4 0.00 0.03 0.03 56 1016.9
20260507043037 15 257 9.7 14.5 0.00 0.03 0.03 76 1016.9
20260507041555 15 251 4.8 8.0 0.00 0.03 0.03 78 1016.7
20260507040049 15 257 4.8 9.7 0.00 0.03 0.03 78 1016.5
20260507034548 15 247 6.4 11.3 0.00 0.03 0.03 78 1016.4
20260507033100 15 241 6.4 11.3 0.03 0.03 0.03 78 1016.3
20260507031554 15 241 0.0 0.0 0.03 0.03 0.03 78 1016.0
20260507030047 15 241 0.0 3.2 0.03 0.03 0.03 78 1015.6
20260507024613 14 241 1.6 4.8 0.03 0.03 0.03 78 1015.5
20260507023054 15 241 3.2 4.8 0.00 0.00 0.00 78 1015.6
20260507021554 15 241 3.2 6.4 0.00 0.00 0.00 78 1015.6
20260507020055 16 241 3.2 6.4 0.00 0.00 0.00 78 1015.6
20260507014552 16 241 4.8 6.4 0.00 0.00 0.00 78 1015.6
20260507013042 16 241 0.0 0.0 0.00 0.00 0.00 78 1015.5
20260507011559 15 241 0.0 0.0 0.00 0.00 0.00 77 1015.5
20260507010051 16 241 0.0 0.0 0.00 0.00 0.00 77 1015.5
20260507004552 16 241 3.2 4.8 0.00 0.00 0.00 77 1015.5
20260507003046 16 241 1.6 4.8 0.00 0.00 0.00 77 1015.5
20260507001543 16 241 1.6 6.4 0.00 0.00 0.00 76 1015.6
20260507000037 16 241 4.8 8.0 0.00 0.00 0.00 76 1015.7
20260506234551 16 240 4.8 8.0 0.00 0.00 0.00 75 1015.6
20260506233057 16 236 4.8 11.3 0.00 0.00 0.00 74 1015.8
20260506231553 15 249 6.4 11.3 0.00 0.00 0.00 74 1015.7
20260506230040 15 249 11.3 14.5 0.00 0.00 0.00 75 1016.0
20260506224543 15 250 11.3 14.5 0.00 0.00 0.00 76 1016.2
20260506223040 15 260 12.9 20.9 0.00 0.00 0.00 77 1016.3
20260506221551 16 253 14.5 19.3 0.00 0.00 0.00 77 1016.4
20260506220053 16 254 14.5 19.3 0.00 0.00 0.00 77 1016.3
20260506214549 16 247 12.9 17.7 0.00 0.00 0.00 76 1016.3
20260506213045 16 252 11.3 17.7 0.00 0.00 0.00 76 1016.4
20260506211559 16 243 11.3 16.1 0.00 0.00 0.00 75 1016.5
20260506210054 16 251 8.0 14.5 0.00 0.00 0.00 75 1016.4
20260506204551 16 244 6.4 11.3 0.00 0.00 0.00 74 1016.5
20260506203046 16 246 4.8 8.0 0.00 0.00 0.00 72 1016.6
20260506201556 15 250 8.0 14.5 0.00 0.00 0.00 69 1016.5
20260506200040 15 246 6.4 11.3 0.00 0.00 0.00 65 1016.4
20260506194540 16 250 8.0 14.5 0.00 0.00 0.00 64 1016.3
20260506193057 17 252 8.0 12.9 0.00 0.00 0.00 61 1016.2
20260506191549 17 249 6.4 11.3 0.00 0.00 0.00 53 1016.1
20260506190044 17 249 4.8 6.4 0.00 0.00 0.00 43 1015.9
20260506184550 18 249 4.8 8.0 0.00 0.00 0.00 39 1015.8
20260506183041 18 249 3.2 6.4 0.00 0.00 0.00 39 1015.4
20260506181558 18 249 3.2 6.4 0.00 0.00 0.00 39 1015.4
20260506180053 18 249 4.8 8.0 0.00 0.00 0.00 40 1015.2
20260506174553 18 249 3.2 6.4 0.00 0.00 0.00 39 1015.2
20260506173122 18 249 1.6 8.0 0.00 0.00 0.00 40 1015.1
20260506171543 18 249 4.8 6.4 0.00 0.00 0.00 40 1014.8